| time (UTC) | temp F | wind direction | speed knots | gust knots | rain 1hr in | rain 24hr in | rain mn in | humidity % | barometer mb |
| 20260904131522 | 56 | 180 | 7.0 | 8.7 | 0.00 | 0.00 | 0.00 | 61 | 1025.8 |
| 20260904130522 | 55 | 183 | 6.1 | 8.7 | 0.00 | 0.00 | 0.00 | 63 | 1025.8 |
| 20260904125519 | 55 | 168 | 7.0 | 8.7 | 0.00 | 0.00 | 0.00 | 64 | 1025.6 |
| 20260904124522 | 55 | 166 | 6.1 | 8.7 | 0.00 | 0.00 | 0.00 | 63 | 1025.5 |
| 20260904123522 | 54 | 175 | 5.2 | 7.0 | 0.00 | 0.00 | 0.00 | 64 | 1025.4 |
| 20260904122520 | 54 | 163 | 7.0 | 9.6 | 0.00 | 0.00 | 0.00 | 63 | 1025.3 |
| 20260904121520 | 54 | 159 | 7.8 | 8.7 | 0.00 | 0.00 | 0.00 | 63 | 1025.2 |
| 20260904120523 | 55 | 156 | 7.0 | 8.7 | 0.00 | 0.00 | 0.00 | 61 | 1025.2 |
| 20260904115518 | 55 | 162 | 6.1 | 7.8 | 0.00 | 0.00 | 0.00 | 60 | 1025.1 |
| 20260904114538 | 56 | 193 | 6.1 | 7.8 | 0.00 | 0.00 | 0.00 | 59 | 1025.0 |
| 20260904113520 | 57 | 190 | 7.8 | 11.3 | 0.00 | 0.00 | 0.00 | 58 | 1025.1 |
| 20260904112521 | 57 | 190 | 7.8 | 11.3 | 0.00 | 0.00 | 0.00 | 56 | 1025.0 |
| 20260904111518 | 58 | 194 | 5.2 | 7.8 | 0.00 | 0.00 | 0.00 | 54 | 1025.0 |
| 20260904110538 | 59 | 191 | 7.0 | 10.4 | 0.00 | 0.00 | 0.00 | 50 | 1025.0 |
| 20260904105518 | 59 | 189 | 7.0 | 9.6 | 0.00 | 0.00 | 0.00 | 52 | 1025.0 |
| 20260904104518 | 59 | 190 | 6.1 | 10.4 | 0.00 | 0.00 | 0.00 | 52 | 1024.9 |
| 20260904103517 | 58 | 178 | 4.3 | 7.0 | 0.00 | 0.00 | 0.00 | 53 | 1024.9 |
| 20260904102517 | 58 | 152 | 5.2 | 7.0 | 0.00 | 0.00 | 0.00 | 52 | 1024.7 |
| 20260904101518 | 59 | 157 | 4.3 | 7.0 | 0.00 | 0.00 | 0.00 | 52 | 1024.6 |
| 20260904100518 | 60 | 203 | 5.2 | 7.8 | 0.00 | 0.00 | 0.00 | 46 | 1024.5 |
| 20260904095518 | 60 | 199 | 5.2 | 7.8 | 0.00 | 0.00 | 0.00 | 49 | 1024.4 |
| 20260904094518 | 59 | 188 | 6.1 | 8.7 | 0.00 | 0.00 | 0.00 | 50 | 1024.3 |
| 20260904093558 | 60 | 197 | 5.2 | 7.8 | 0.00 | 0.00 | 0.00 | 48 | 1024.2 |
| 20260904092517 | 60 | 180 | 7.0 | 9.6 | 0.00 | 0.00 | 0.00 | 47 | 1024.2 |
| 20260904091519 | 61 | 174 | 4.3 | 7.0 | 0.00 | 0.00 | 0.00 | 48 | 1024.2 |
| 20260904090519 | 62 | 164 | 5.2 | 7.8 | 0.00 | 0.00 | 0.00 | 44 | 1024.1 |
| 20260904085519 | 62 | 349 | 2.6 | 6.1 | 0.00 | 0.00 | 0.00 | 44 | 1024.3 |
| 20260904084519 | 62 | 209 | 5.2 | 7.0 | 0.00 | 0.00 | 0.00 | 42 | 1024.2 |
| 20260904083519 | 62 | 192 | 7.0 | 8.7 | 0.00 | 0.00 | 0.00 | 42 | 1024.3 |
| 20260904082519 | 63 | 203 | 4.3 | 7.0 | 0.00 | 0.00 | 0.00 | 41 | 1024.4 |
| 20260904081519 | 63 | 220 | 7.0 | 8.7 | 0.00 | 0.00 | 0.00 | 40 | 1024.3 |
| 20260904080518 | 63 | 216 | 7.0 | 9.6 | 0.00 | 0.00 | 0.00 | 41 | 1024.4 |
| 20260904075516 | 64 | 224 | 6.1 | 8.7 | 0.00 | 0.00 | 0.00 | 40 | 1024.6 |
| 20260904074516 | 63 | 215 | 5.2 | 7.8 | 0.00 | 0.00 | 0.00 | 40 | 1024.8 |
| 20260904073520 | 63 | 223 | 5.2 | 7.8 | 0.00 | 0.00 | 0.00 | 39 | 1024.8 |
| 20260904072601 | 63 | 216 | 4.3 | 7.0 | 0.00 | 0.00 | 0.00 | 40 | 1024.8 |
| 20260904071521 | 62 | 208 | 5.2 | 7.8 | 0.00 | 0.00 | 0.00 | 41 | 1024.8 |
| 20260904070517 | 60 | 195 | 4.3 | 7.0 | 0.00 | 0.00 | 0.00 | 44 | 1024.8 |
| 20260904065517 | 61 | 160 | 3.5 | 6.1 | 0.00 | 0.00 | 0.00 | 42 | 1024.8 |
| 20260904064517 | 60 | 159 | 3.5 | 7.0 | 0.00 | 0.00 | 0.00 | 44 | 1024.8 |
| 20260904063517 | 60 | 170 | 4.3 | 6.1 | 0.00 | 0.00 | 0.00 | 45 | 1024.8 |
| 20260904062522 | 0 | 155 | 4.3 | 4.3 | 0.00 | 0.00 | 0.00 | ||
| 20260904061558 | 61 | 167 | 6.1 | 8.7 | 0.00 | 0.00 | 0.00 | 42 | 1024.7 |
| 20260904060518 | 62 | 152 | 7.0 | 8.7 | 0.00 | 0.00 | 0.00 | 41 | 1024.7 |
| 20260904055538 | 62 | 151 | 6.1 | 7.8 | 0.00 | 0.00 | 0.00 | 40 | 1024.7 |
| 20260904054538 | 63 | 152 | 6.1 | 9.6 | 0.00 | 0.00 | 0.00 | 38 | 1024.8 |
| 20260904053518 | 63 | 174 | 8.7 | 12.2 | 0.00 | 0.00 | 0.00 | 38 | 1024.8 |
| 20260904052516 | 62 | 157 | 6.1 | 8.7 | 0.00 | 0.00 | 0.00 | 38 | 1025.0 |
| 20260904051519 | 60 | 164 | 7.0 | 8.7 | 0.00 | 0.00 | 0.00 | 42 | 1025.0 |
| 20260904050519 | 61 | 162 | 2.6 | 6.1 | 0.00 | 0.00 | 0.00 | 41 | 1025.2 |
| 20260904045620 | 60 | 141 | 4.3 | 8.7 | 0.00 | 0.00 | 0.00 | 41 | 1025.1 |
| 20260904044524 | 61 | 110 | 2.6 | 4.3 | 0.00 | 0.00 | 0.00 | 42 | 1025.1 |
| 20260904043519 | 62 | 111 | 2.6 | 5.2 | 0.00 | 0.00 | 0.00 | 39 | 1025.1 |
| 20260904042539 | 62 | 26 | 2.6 | 4.3 | 0.00 | 0.00 | 0.00 | 38 | 1025.2 |
| 20260904041519 | 63 | 178 | 3.5 | 8.7 | 0.00 | 0.00 | 0.00 | 37 | 1025.1 |
| 20260904040520 | 63 | 218 | 4.3 | 6.1 | 0.00 | 0.00 | 0.00 | 38 | 1025.0 |
| 20260904035540 | 64 | 195 | 5.2 | 8.7 | 0.00 | 0.00 | 0.00 | 35 | 1025.0 |
| 20260904034517 | 64 | 198 | 7.0 | 10.4 | 0.00 | 0.00 | 0.00 | 40 | 1025.0 |
| 20260904033520 | 64 | 198 | 7.0 | 8.7 | 0.00 | 0.00 | 0.00 | 39 | 1024.9 |
| 20260904032517 | 64 | 185 | 7.0 | 12.2 | 0.00 | 0.00 | 0.00 | 39 | 1024.8 |
| 20260904031521 | 65 | 161 | 5.2 | 7.8 | 0.00 | 0.00 | 0.00 | 38 | 1024.8 |
| 20260904030521 | 64 | 171 | 6.1 | 7.0 | 0.00 | 0.00 | 0.00 | 37 | 1024.8 |
| 20260904025521 | 64 | 152 | 6.1 | 7.8 | 0.00 | 0.00 | 0.00 | 39 | 1024.8 |
| 20260904024521 | 65 | 151 | 5.2 | 8.7 | 0.00 | 0.00 | 0.00 | 36 | 1024.7 |
| 20260904023521 | 64 | 161 | 5.2 | 7.8 | 0.00 | 0.00 | 0.00 | 36 | 1024.7 |
| 20260904022522 | 63 | 155 | 5.2 | 7.0 | 0.00 | 0.00 | 0.00 | 38 | 1024.6 |
| 20260904021522 | 64 | 152 | 5.2 | 7.8 | 0.00 | 0.00 | 0.00 | 36 | 1024.4 |
| 20260904020516 | 66 | 167 | 5.2 | 7.0 | 0.00 | 0.00 | 0.00 | 34 | 1024.3 |
| 20260904015517 | 67 | 220 | 5.2 | 7.0 | 0.00 | 0.00 | 0.00 | 31 | 1024.2 |
| 20260904014517 | 68 | 211 | 5.2 | 8.7 | 0.00 | 0.00 | 0.00 | 31 | 1024.1 |
| 20260904013523 | 69 | 221 | 4.3 | 7.0 | 0.00 | 0.00 | 0.00 | 29 | 1024.1 |
| 20260904012517 | 70 | 219 | 5.2 | 8.7 | 0.00 | 0.00 | 0.00 | 28 | 1024.0 |
| 20260904011518 | 72 | 216 | 5.2 | 7.0 | 0.00 | 0.00 | 0.00 | 28 | 1024.0 |
| 20260904010518 | 74 | 222 | 5.2 | 7.8 | 0.00 | 0.00 | 0.00 | 26 | 1024.0 |
| 20260904005517 | 75 | 229 | 7.0 | 17.4 | 0.00 | 0.00 | 0.00 | 25 | 1023.9 |
| 20260904004518 | 75 | 238 | 6.1 | 9.6 | 0.00 | 0.00 | 0.00 | 24 | 1023.9 |
| 20260904003518 | 76 | 248 | 7.0 | 11.3 | 0.00 | 0.00 | 0.00 | 23 | 1023.9 |
| 20260904002518 | 76 | 243 | 7.0 | 11.3 | 0.00 | 0.00 | 0.00 | 23 | 1023.9 |
| 20260904001539 | 76 | 232 | 6.1 | 9.6 | 0.00 | 0.00 | 0.00 | 24 | 1023.9 |
| 20260904000519 | 75 | 221 | 5.2 | 9.6 | 0.00 | 0.00 | 0.00 | 25 | 1023.9 |
| 20260903235536 | 77 | 242 | 6.1 | 8.7 | 0.00 | 0.00 | 0.00 | 24 | 1023.9 |
| 20260903234539 | 78 | 259 | 8.7 | 13.0 | 0.00 | 0.00 | 0.00 | 23 | 1023.9 |
| 20260903233539 | 78 | 249 | 8.7 | 15.6 | 0.00 | 0.00 | 0.00 | 23 | 1023.8 |
| 20260903232536 | 78 | 237 | 6.1 | 12.2 | 0.00 | 0.00 | 0.00 | 22 | 1023.8 |
| 20260903231516 | 78 | 247 | 7.0 | 12.2 | 0.00 | 0.00 | 0.00 | 22 | 1023.9 |
| 20260903230517 | 78 | 260 | 7.0 | 16.5 | 0.00 | 0.00 | 0.00 | 22 | 1023.9 |
| 20260903225520 | 78 | 308 | 7.0 | 10.4 | 0.00 | 0.00 | 0.00 | 22 | 1024.0 |
| 20260903224518 | 78 | 272 | 5.2 | 13.0 | 0.00 | 0.00 | 0.00 | 22 | 1024.0 |
| 20260903223558 | 78 | 264 | 7.0 | 13.9 | 0.00 | 0.00 | 0.00 | 22 | 1024.1 |
| 20260903222518 | 78 | 279 | 6.1 | 10.4 | 0.00 | 0.00 | 0.00 | 22 | 1024.1 |
| 20260903221520 | 78 | 260 | 2.6 | 7.0 | 0.00 | 0.00 | 0.00 | 22 | 1024.3 |
| 20260903220539 | 78 | 222 | 8.7 | 15.6 | 0.00 | 0.00 | 0.00 | 22 | 1024.4 |
| 20260903215518 | 78 | 229 | 9.6 | 15.6 | 0.00 | 0.00 | 0.00 | 22 | 1024.4 |
| 20260903214521 | 77 | 251 | 3.5 | 6.1 | 0.00 | 0.00 | 0.00 | 23 | 1024.5 |
| 20260903213519 | 77 | 255 | 7.0 | 13.9 | 0.00 | 0.00 | 0.00 | 22 | 1024.5 |
| 20260903212522 | 77 | 351 | 3.5 | 7.8 | 0.00 | 0.00 | 0.00 | 20 | 1024.7 |
| 20260903211539 | 77 | 291 | 5.2 | 7.8 | 0.00 | 0.00 | 0.00 | 20 | 1024.8 |
| 20260903210516 | 77 | 289 | 7.0 | 14.8 | 0.00 | 0.00 | 0.00 | 20 | 1024.8 |
| 20260903205519 | 76 | 260 | 4.3 | 13.9 | 0.00 | 0.00 | 0.00 | 22 | 1025.0 |
| 20260903204519 | 76 | 276 | 7.0 | 13.0 | 0.00 | 0.00 | 0.00 | 22 | 1025.1 |
| 20260903203516 | 76 | 321 | 5.2 | 8.7 | 0.00 | 0.00 | 0.00 | 22 | 1025.2 |
| 20260903202517 | 76 | 283 | 4.3 | 9.6 | 0.00 | 0.00 | 0.00 | 21 | 1025.2 |
| 20260903201537 | 76 | 224 | 7.0 | 13.9 | 0.00 | 0.00 | 0.00 | 23 | 1025.3 |
| 20260903200517 | 76 | 289 | 5.2 | 10.4 | 0.00 | 0.00 | 0.00 | 21 | 1025.3 |
| 20260903195517 | 76 | 267 | 3.5 | 7.0 | 0.00 | 0.00 | 0.00 | 20 | 1025.5 |
| 20260903194517 | 75 | 271 | 4.3 | 10.4 | 0.00 | 0.00 | 0.00 | 21 | 1025.5 |
| 20260903193518 | 75 | 275 | 6.1 | 10.4 | 0.00 | 0.00 | 0.00 | 22 | 1025.6 |
| 20260903192518 | 76 | 284 | 9.6 | 13.9 | 0.00 | 0.00 | 0.00 | 21 | 1025.6 |
| 20260903191539 | 76 | 264 | 11.3 | 17.4 | 0.00 | 0.00 | 0.00 | 20 | 1025.6 |
| 20260903190518 | 75 | 236 | 5.2 | 11.3 | 0.00 | 0.00 | 0.00 | 21 | 1025.7 |
| 20260903185518 | 75 | 272 | 7.8 | 16.5 | 0.00 | 0.00 | 0.00 | 22 | 1025.7 |
| 20260903184519 | 75 | 241 | 6.1 | 11.3 | 0.00 | 0.00 | 0.00 | 24 | 1025.8 |
| 20260903183516 | 74 | 314 | 4.3 | 8.7 | 0.00 | 0.00 | 0.00 | 23 | 1025.8 |
| 20260903182519 | 75 | 255 | 7.0 | 13.9 | 0.00 | 0.00 | 0.00 | 22 | 1025.9 |
| 20260903181519 | 74 | 162 | 3.5 | 7.8 | 0.00 | 0.00 | 0.00 | 26 | 1026.0 |
| 20260903180520 | 74 | 236 | 5.2 | 10.4 | 0.00 | 0.00 | 0.00 | 26 | 1026.0 |
| 20260903175516 | 73 | 257 | 5.2 | 9.6 | 0.00 | 0.00 | 0.00 | 26 | 1026.2 |
| 20260903174520 | 73 | 249 | 3.5 | 8.7 | 0.00 | 0.00 | 0.00 | 25 | 1026.2 |
| 20260903173520 | 73 | 235 | 4.3 | 10.4 | 0.00 | 0.00 | 0.00 | 27 | 1026.2 |
| 20260903172520 | 73 | 254 | 5.2 | 7.8 | 0.00 | 0.00 | 0.00 | 28 | 1026.3 |
| 20260903171520 | 72 | 223 | 4.3 | 7.8 | 0.00 | 0.00 | 0.00 | 27 | 1026.3 |
| 20260903170521 | 71 | 202 | 4.3 | 7.8 | 0.00 | 0.00 | 0.00 | 27 | 1026.3 |
| 20260903165517 | 71 | 203 | 4.3 | 7.8 | 0.00 | 0.00 | 0.00 | 27 | 1026.3 |
| 20260903164521 | 71 | 223 | 4.3 | 7.8 | 0.00 | 0.00 | 0.00 | 29 | 1026.3 |
| 20260903163521 | 70 | 255 | 4.3 | 7.0 | 0.00 | 0.00 | 0.00 | 29 | 1026.3 |
| 20260903162521 | 70 | 315 | 4.3 | 7.0 | 0.00 | 0.00 | 0.00 | 32 | 1026.1 |
| 20260903161518 | 70 | 320 | 5.2 | 9.6 | 0.00 | 0.00 | 0.00 | 33 | 1026.0 |
| 20260903160518 | 69 | 286 | 5.2 | 9.6 | 0.00 | 0.00 | 0.00 | 34 | 1026.2 |
| 20260903155518 | 69 | 288 | 6.1 | 11.3 | 0.00 | 0.00 | 0.00 | 35 | 1026.3 |
| 20260903154519 | 68 | 272 | 6.1 | 9.6 | 0.00 | 0.00 | 0.00 | 35 | 1026.5 |
| 20260903153516 | 68 | 282 | 7.8 | 12.2 | 0.00 | 0.00 | 0.00 | 35 | 1026.5 |
| 20260903152519 | 68 | 287 | 5.2 | 9.6 | 0.00 | 0.00 | 0.00 | 35 | 1026.5 |
| 20260903151522 | 68 | 279 | 4.3 | 8.7 | 0.00 | 0.00 | 0.00 | 36 | 1026.6 |
| 20260903150543 | 68 | 227 | 3.5 | 6.1 | 0.00 | 0.00 | 0.00 | 35 | 1026.7 |
| 20260903145517 | 67 | 231 | 5.2 | 8.7 | 0.00 | 0.00 | 0.00 | 37 | 1026.8 |
| 20260903144517 | 66 | 209 | 7.0 | 9.6 | 0.00 | 0.00 | 0.00 | 41 | 1026.8 |
| 20260903143517 | 66 | 186 | 8.7 | 11.3 | 0.00 | 0.00 | 0.00 | 41 | 1026.8 |
| 20260903142517 | 65 | 193 | 8.7 | 13.0 | 0.00 | 0.00 | 0.00 | 43 | 1026.7 |
| 20260903141517 | 64 | 188 | 9.6 | 13.9 | 0.00 | 0.00 | 0.00 | 45 | 1026.8 |
| 20260903132519 | 59 | 190 | 7.0 | 9.6 | 0.00 | 0.00 | 0.00 | 51 | 1026.3 |